This is the latest recevied weather packets stored in our database for station/object N3EDS. If no packets are shown the sender has not sent any weather packets the latest 10 day(s).
| Time | Temp. | Humidity | Pressure | Rain* | Wind** | Luminosity | Snow |
|---|---|---|---|---|---|---|---|
| 1777875298 | 3.33° C | 79% | 1014.7 hPa | 0 mm | - | 0 W/m² | - |
| 1777874995 | 3.33° C | 78% | 1014.6 hPa | 0 mm | - | 0 W/m² | - |
| 1777874691 | 3.33° C | 78% | 1014.6 hPa | 0 mm | - | 0 W/m² | - |
| 1777874387 | 2.78° C | 79% | 1014.6 hPa | 0 mm | - | 0 W/m² | - |
| 1777874085 | 2.78° C | 80% | 1014.8 hPa | 0 mm | - | 0 W/m² | - |
| 1777873783 | 3.33° C | 79% | 1014.9 hPa | 0 mm | - | 0 W/m² | - |
| 1777873479 | 3.33° C | 77% | 1014.7 hPa | 0 mm | - | 0 W/m² | - |
| 1777873177 | 3.33° C | 76% | 1014.8 hPa | 0 mm | - | 0 W/m² | - |
| 1777872873 | 3.33° C | 77% | 1014.6 hPa | 0 mm | - | 0 W/m² | - |
| 1777872571 | 3.89° C | 77% | 1014.7 hPa | 0 mm | - | 0 W/m² | - |
| 1777872268 | 4.44° C | 75% | 1014.9 hPa | 0 mm | - | 0 W/m² | - |
| 1777871966 | 4.44° C | 73% | 1014.8 hPa | 0 mm | - | 0 W/m² | - |
| 1777871662 | 4.44° C | 73% | 1015 hPa | 0 mm | - | 0 W/m² | - |
| 1777871358 | 4.44° C | 74% | 1015.2 hPa | 0 mm | - | 0 W/m² | - |
| 1777871056 | 3.89° C | 76% | 1014.9 hPa | 0 mm | - | 0 W/m² | - |
| 1777870753 | 3.33° C | 79% | 1015.2 hPa | 0 mm | - | 0 W/m² | - |
| 1777870448 | 3.33° C | 80% | 1015.2 hPa | 0 mm | - | 0 W/m² | - |
| 1777870145 | 3.33° C | 79% | 1015 hPa | 0 mm | - | 0 W/m² | - |
| 1777869843 | 3.33° C | 78% | 1014.9 hPa | 0 mm | - | 0 W/m² | - |
| 1777869540 | 3.33° C | 78% | 1015 hPa | 0 mm | - | 0 W/m² | - |
| 1777869236 | 3.89° C | 76% | 1015 hPa | 0 mm | - | 0 W/m² | - |
| 1777868934 | 3.89° C | 76% | 1014.7 hPa | 0 mm | - | 0 W/m² | - |
| 1777868630 | 4.44° C | 75% | 1014.9 hPa | 0 mm | - | 0 W/m² | - |
| 1777868326 | 4.44° C | 72% | 1014.9 hPa | 0 mm | - | 0 W/m² | - |
| 1777868023 | 4.44° C | 72% | 1014.9 hPa | 0 mm | - | 0 W/m² | - |
* Rain latest hour (hover to see other rain measurements)
** Current wind speed in m/s (hover to see current wind gust speed)